This demonstration page uses our WeatherBlox Daily Observations layout. Learn more.

Left ArrowRight Arrow

Hourly Observations for July 28, 2018

Temp ( °F °C ) Dew Point ( °F °C ) Humidity (%) Winds ( mph kmh ) Pressure ( in mb ) Visibility ( mi km ) Precip ( " mm )
12:53 am 00:53 Mostly Clear 58 14.4 51 10.6 78 78 ENE 9 15 30.09 1019 10 16 0.00 0.00
1:53 am 01:53 Mostly Clear 56 13.3 51 10.6 84 84 ENE 8 13 30.09 1019 10 16 0.00 0.00
2:53 am 02:53 Clear 54 12.2 50 10 87 87 E 7 11 30.09 1019 10 16 0.00 0.00
3:53 am 03:53 Clear 51 10.6 49 9.4 92 92 Calm 30.10 1019 10 16 0.00 0.00
4:53 am 04:53 Partly Cloudy 51 10.6 49 9.4 92 92 Calm 30.09 1019 10 16 0.00 0.00
5:53 am 05:53 Mostly Sunny 51 10.6 49 9.4 92 92 ENE 3 6 30.09 1019 10 16 0.00 0.00
6:53 am 06:53 Mostly Sunny 52 11.1 49 9.4 89 89 ENE 3 6 30.11 1020 10 16 0.00 0.00
7:53 am 07:53 Sunny 55 12.8 49 9.4 80 80 VRB 3 6 30.12 1020 10 16 0.00 0.00
8:53 am 08:53 Mostly Sunny 58 14.4 50 10 75 75 NNE 3 6 30.12 1020 10 16 0.00 0.00
9:53 am 09:53 Cloudy 60 15.6 50 10 70 70 Calm 30.13 1020 10 16 0.00 0.03
10:25 am 10:25 Cloudy with Nearby Thunderstorms 58 14.4 52 11.1 81 81 NW 6 9 30.09 1019 5 8 0.01 0.25
10:53 am 10:53 Cloudy with Heavy Rain 58 14.4 54 12.2 87 87 S 3 6 30.16 1021 3 5 0.05 1.27
11:24 am 11:24 Cloudy with Nearby Thunderstorms 59 15 55 13 88 88 NE 13 20 30.09 1019 10 16 0.00 0.00
11:39 am 11:39 Mostly Cloudy 60 15.6 55 12.8 84 84 ENE 13 20 30.09 1019 10 16 0.07 1.78
11:53 am 11:53 Mostly Cloudy 61 16.1 56 13.3 84 84 ESE 10 17 30.12 1020 10 16 0.07 1.78
12:20 pm 12:20 Mostly Cloudy with Nearby Thunderstorms 63 17 55 13 77 77 WNW 20 31 30.06 1018 10 16 0.00 0.00
12:53 pm 12:53 Cloudy 63 17.2 57 13.9 81 81 NNW 10 17 30.14 1021 10 16 0.00 0.00
1:53 pm 13:53 Mostly Cloudy 66 18.9 56 13.3 70 70 NNE 6 9 30.14 1021 10 16 0.01 0.25
2:53 pm 14:53 Mostly Cloudy 68 20 54 12.2 61 61 ESE 8 13 30.12 1020 10 16 0.00 0.03
3:53 pm 15:53 Mostly Sunny 68 20 55 12.8 63 63 NNE 8 13 30.11 1020 10 16 0.00 0.00
4:53 pm 16:53 Partly Cloudy 77 25 50 10 39 39 NE 6 9 30.08 1019 10 16 0.00 0.00
5:53 pm 17:53 Sunny 77 25 47 8.3 35 35 ESE 6 9 30.09 1019 10 16 0.00 0.00
6:53 pm 18:53 Sunny 76 24.4 46 7.8 35 35 ESE 6 9 30.09 1019 10 16 0.00 0.00
7:53 pm 19:53 Sunny 74 23.3 51 10.6 45 45 ESE 7 11 30.09 1019 10 16 0.00 0.00
8:53 pm 20:53 Sunny 67 19.4 53 11.7 61 61 ESE 6 9 30.09 1019 10 16 0.00 0.00
9:53 pm 21:53 Clear 63 17.2 54 12.2 73 73 Calm 30.11 1020 10 16 0.00 0.00
10:53 pm 22:53 Clear 60 15.6 52 11.1 75 75 Calm 30.13 1020 10 16 0.00 0.00
11:53 pm 23:53 Clear 57 13.9 51 10.6 81 81 Calm 30.13 1020 10 16 0.00 0.00

Powered by AerisWeather